Regional Weather Roundup
Issued by NWS Midland/Odessa, TX

Home | Current Version | Previous Version | Text Only | Print | Product List | Glossary On
Versions: 1 2 3 4 5 6 7 8 9 10 11 12 13 14 15 16 17 18 19 20 21 22 23 24 25 26 27 28 29 30 31 32 33 34 35 36 37 38 39 40 41 42 43 44 45 46 47 48 49 50
000
ASUS44 KMAF 290010
RWRMAF
MIDLAND AREA WEATHER ROUNDUP
NATIONAL WEATHER SERVICE MIDLAND TX
700 PM CDT WED SEP 28 2016

...IN SOUTHWEST TEXAS AND SOUTHEAST NEW MEXICO...

CITY           SKY/WX    TMP DP  RH WIND       PRES   REMARKS
ALPINE         CLEAR     75  60  59 NE7       30.28S
ANDREWS        FAIR      78  48  34 CALM      30.18S
ARTESIA        CLEAR     81  48  32 CALM      30.17S
BIG SPRING     CLEAR     83  46  27 CALM      30.16S
CARLSBAD       CLEAR     79  54  41 S5        30.15S
DRYDEN           N/A     81  61  50 E6        30.09
FORT STOCKTON  CLEAR     80  59  48 E6        30.15S
GUAD PASS      CLEAR     70  51  51 E20       30.29R
HOBBS          CLEAR     77  45  31 E6        30.20R
MARFA          CLOUDY   N/A N/A N/A E9        30.25S
MIDLAND AIRPK  CLEAR     83  42  23 E6        30.15S
MIDLAND INTL   CLEAR     84  43  23 E5        30.14S
ODESSA         CLEAR     83  44  25 CALM      30.16S
PECOS          CLEAR     82  59  45 CALM      30.12S
PRESIDIO       NOT AVBL
SEMINOLE       CLEAR     78  46  31 CALM      30.19S
SNYDER           N/A     82  50  32 S5        30.14R
WINK           CLEAR     84  54  35 CALM      30.12S
$$
...OTHER STATIONS IN TEXAS...

CITY           SKY/WX    TMP DP  RH WIND       PRES   REMARKS
ABILENE        CLEAR     81  48  31 E3        30.11S
AMARILLO       CLEAR     80  38  22 E10       30.21R
AUSTIN         PTCLDY    82  54  37 NW5       30.03R
BROWNSVILLE    CLEAR     82  73  74 NE12      30.00R
CORPUS CHRISTI PTCLDY    85  69  58 E9        30.00S
DALLAS FTW     PTCLDY    87  50  27 W6        30.02S
DEL RIO        CLEAR     82  67  60 S6        30.04S
EL PASO        PTSUNNY   83  50  31 E3        30.15R
HOUSTON INT    PTCLDY    83  61  47 NE6       30.01R
LUBBOCK        MOCLDY    82  43  25 NE7       30.17R
SAN ANGELO     CLEAR     80  56  43 E7        30.10R
SAN ANTONIO    PTCLDY    87  62  43 CALM      30.04R
WACO           CLEAR     84  54  35 NE3       30.04R
WICHITA FALLS  NOT AVBL
$$
...OTHER LOCATIONS IN NEW MEXICO...

CITY           SKY/WX    TMP DP  RH WIND       PRES   REMARKS
ALAMAGORDO     CLEAR     81  50  34 CALM      30.19R
ALBUQUERQUE    CLOUDY    79  43  27 SW7       30.23S
CANNON AFB     NOT AVBL
CLOVIS         CLEAR     77  46  33 SE6       30.23S
HOLLOMAN AFB   SUNNY     82  50  33 SW5       30.16S
ROSWELL        CLEAR     81  44  27 S8        30.17S
RUIDOSO        CLOUDY    68  39  34 E12       30.39R
SANTA FE       CLOUDY    78  28  16 S17G25    30.31R
TRUTH OR CONSE CLOUDY    79  49  34 S13       30.21R
TUCUMCARI      CLEAR     82  33  17 E7        30.20R
$$




USA.gov is the U.S. government's official web portal to all federal, state and local government web resources and services.